Weather History for KTVK - March, 2014

Change the Weather History Date:

Wednesday, March 5, 2014

  Actual Average Record
Temperature  
Mean Temperature 24 °F -  
Max Temperature 26 °F 43 °F 71 °F (2009)
Min Temperature 21 °F 25 °F -14 °F (1960)
Degree Days  
Heating Degree Days 42    
Moisture  
Dew Point 19 °F    
Average Humidity 82    
Maximum Humidity 100    
Minimum Humidity 69    
Precipitation  
Precipitation 0.00 in - - ()
Sea Level Pressure  
Sea Level Pressure 30.24 in    
Wind  
Wind Speed 10 mph (ENE)    
Max Wind Speed 16 mph    
Max Gust Speed 22 mph    
Visibility 9 miles    
Events Rain , Snow    
Averages and records for this station are not official NWS values.
T = Trace of Precipitation, MM = Missing Value Source: NWS Daily Summary

Daily Weather History Graph

Daily Weather History Graph

Search for Another Location

Airport or City:

Trip Planner

Search our weather history database for the weather conditions in past years. The results will help you decide how hot, cold, wet, or windy it might be!

Date:

Astronomy

Mar. 05, 2014 Rise Set
Actual Time 6:39 AM CST 6:07 PM CST
Civil Twilight 6:11 AM CST 6:34 PM CST
Nautical Twilight 5:40 AM CST 7:06 PM CST
Astronomical Twilight 5:08 AM CST 7:38 PM CST
Moon 9:03 AM CST (3/5) 11:18 PM CST (3/5)
Length of Visible Light 12h 22m
Length of Day
11h 28m
Waxing Crescent, 23% of the Moon is Illuminated
Mar 5
Waxing Crescent
Mar 8
First Quarter
Mar 16
Full
Mar 23
Last Quarter
Mar 30
New

Hourly Weather History & Observations

Time (CST) Temp. Windchill Dew Point Humidity Pressure Visibility Wind Dir Wind Speed Gust Speed Precip Events Conditions
12:15 AM 24.8 °F 15.3 °F 15.8 °F 69% 30.11 in 10.0 mi ENE 9.2 mph - N/A   Mostly Cloudy
12:35 AM 24.8 °F 15.3 °F 15.8 °F 69% 30.12 in 10.0 mi ENE 9.2 mph - N/A   Mostly Cloudy
12:55 AM 24.8 °F 15.3 °F 15.8 °F 69% 30.13 in 10.0 mi ENE 9.2 mph - N/A   Mostly Cloudy
1:15 AM 24.8 °F 16.1 °F 15.8 °F 69% 30.13 in 10.0 mi ENE 8.1 mph - N/A   Scattered Clouds
1:35 AM 24.8 °F 16.9 °F 15.8 °F 69% 30.14 in 10.0 mi ENE 6.9 mph - N/A   Clear
1:55 AM 24.8 °F 16.9 °F 15.8 °F 69% 30.14 in 10.0 mi ENE 6.9 mph - N/A   Clear
2:15 AM 24.8 °F 15.3 °F 15.8 °F 69% 30.12 in 10.0 mi ENE 9.2 mph - N/A   Clear
2:35 AM 24.8 °F 16.1 °F 15.8 °F 69% 30.13 in 10.0 mi ENE 8.1 mph - N/A   Partly Cloudy
2:55 AM 24.8 °F 15.3 °F 15.8 °F 69% 30.13 in 10.0 mi ENE 9.2 mph - N/A   Partly Cloudy
3:15 AM 23.0 °F 13.9 °F 15.8 °F 74% 30.12 in 10.0 mi East 8.1 mph - N/A   Partly Cloudy
3:35 AM 23.0 °F 13.9 °F 15.8 °F 74% 30.12 in 10.0 mi East 8.1 mph - N/A   Partly Cloudy
3:55 AM 23.0 °F 13.9 °F 15.8 °F 74% 30.13 in 10.0 mi ENE 8.1 mph - N/A   Clear
4:15 AM 23.0 °F 14.7 °F 15.8 °F 74% 30.14 in 10.0 mi NE 6.9 mph - N/A   Scattered Clouds
4:35 AM 23.0 °F 14.7 °F 15.8 °F 74% 30.15 in 10.0 mi NE 6.9 mph - N/A   Partly Cloudy
4:55 AM 23.0 °F 13.9 °F 15.8 °F 74% 30.15 in 10.0 mi NE 8.1 mph - N/A   Mostly Cloudy
5:15 AM 23.0 °F 13.9 °F 15.8 °F 74% 30.16 in 10.0 mi NE 8.1 mph - N/A   Mostly Cloudy
5:35 AM 23.0 °F 13.9 °F 15.8 °F 74% 30.17 in 10.0 mi NE 8.1 mph - N/A   Mostly Cloudy
5:55 AM 23.0 °F 13.1 °F 15.8 °F 74% 30.17 in 10.0 mi NE 9.2 mph - N/A   Scattered Clouds
6:15 AM 23.0 °F 12.4 °F 15.8 °F 74% 30.18 in 10.0 mi NE 10.4 mph - N/A   Clear
6:35 AM 23.0 °F 13.1 °F 15.8 °F 74% 30.19 in 10.0 mi NE 9.2 mph - N/A   Clear
6:55 AM 23.0 °F 10.6 °F 15.8 °F 74% 30.19 in 10.0 mi NE 13.8 mph 17.3 mph N/A   Clear
7:15 AM 23.0 °F 11.1 °F 15.8 °F 74% 30.20 in 10.0 mi ENE 12.7 mph 17.3 mph N/A   Partly Cloudy
7:35 AM 23.0 °F 11.1 °F 15.8 °F 74% 30.20 in 10.0 mi ENE 12.7 mph 17.3 mph N/A   Mostly Cloudy
7:55 AM 23.0 °F 10.6 °F 15.8 °F 74% 30.22 in 10.0 mi ENE 13.8 mph - N/A   Mostly Cloudy
8:15 AM 23.0 °F 10.1 °F 15.8 °F 74% 30.22 in 10.0 mi ENE 15.0 mph - N/A   Scattered Clouds
8:35 AM 23.0 °F 11.1 °F 17.6 °F 80% 30.22 in 10.0 mi ENE 12.7 mph - N/A   Clear
8:55 AM 23.0 °F 9.6 °F 15.8 °F 74% 30.23 in 10.0 mi ENE 16.1 mph 19.6 mph N/A   Clear
9:15 AM 24.8 °F 13.4 °F 17.6 °F 74% 30.23 in 10.0 mi ENE 12.7 mph 17.3 mph N/A   Clear
9:35 AM 24.8 °F 11.9 °F 17.6 °F 74% 30.24 in 10.0 mi ENE 16.1 mph 20.7 mph N/A   Clear
9:55 AM 24.8 °F 13.4 °F 17.6 °F 74% 30.24 in 10.0 mi ENE 12.7 mph - N/A   Clear
10:15 AM 24.8 °F 12.4 °F 17.6 °F 74% 30.25 in 10.0 mi ENE 15.0 mph 19.6 mph N/A   Clear
10:35 AM 24.8 °F 12.9 °F 17.6 °F 74% 30.26 in 10.0 mi ENE 13.8 mph - N/A   Clear
10:55 AM 24.8 °F 12.9 °F 17.6 °F 74% 30.26 in 10.0 mi ENE 13.8 mph - N/A   Clear
11:15 AM 24.8 °F 13.4 °F 17.6 °F 74% 30.27 in 10.0 mi ENE 12.7 mph - N/A   Clear
11:35 AM 24.8 °F 12.9 °F 17.6 °F 74% 30.28 in 8.0 mi ENE 13.8 mph 21.9 mph N/A Snow Light Snow
11:55 AM 24.8 °F 14.0 °F 21.2 °F 86% 30.29 in 3.0 mi ENE 11.5 mph - N/A Snow Light Snow
12:15 PM 24.8 °F 14.6 °F 23.0 °F 93% 30.29 in 2.5 mi ENE 10.4 mph - N/A Snow Light Snow
12:35 PM 24.8 °F 14.6 °F 23.0 °F 93% 30.28 in 1.8 mi ENE 10.4 mph - N/A Snow Light Snow
12:55 PM 24.8 °F 14.6 °F 23.0 °F 93% 30.28 in 2.0 mi ENE 10.4 mph 16.1 mph N/A Snow Light Snow
1:15 PM 24.8 °F 14.6 °F 23.0 °F 93% 30.27 in 2.5 mi ENE 10.4 mph - N/A Snow Light Snow
1:35 PM 24.8 °F 14.6 °F 23.0 °F 93% 30.28 in 3.0 mi ENE 10.4 mph 16.1 mph N/A Snow Light Snow
1:55 PM 24.8 °F 13.4 °F 23.0 °F 93% 30.27 in 3.0 mi ENE 12.7 mph - N/A Snow Light Snow
2:10 PM 24.8 °F 12.9 °F 23.0 °F 93% 30.27 in 5.0 mi NE 13.8 mph - N/A Snow Light Snow
2:35 PM 24.8 °F 15.3 °F 23.0 °F 93% 30.27 in 9.0 mi ENE 9.2 mph - N/A Snow Light Snow
2:55 PM 26.6 °F 16.2 °F 23.0 °F 86% 30.27 in 10.0 mi ENE 11.5 mph 16.1 mph N/A Snow Light Snow
3:15 PM 26.6 °F 16.2 °F 23.0 °F 86% 30.27 in 10.0 mi ENE 11.5 mph - N/A Rain Light Freezing Rain
3:35 PM 26.6 °F 16.8 °F 23.0 °F 86% 30.27 in 10.0 mi NE 10.4 mph - N/A Rain Light Freezing Rain
3:55 PM 26.6 °F 16.8 °F 23.0 °F 86% 30.27 in 10.0 mi East 10.4 mph - N/A   Scattered Clouds
4:15 PM 26.6 °F 15.7 °F 23.0 °F 86% 30.28 in 10.0 mi East 12.7 mph - N/A   Partly Cloudy
4:35 PM 26.6 °F 18.2 °F 23.0 °F 86% 30.28 in 9.0 mi ENE 8.1 mph - N/A Snow Light Snow
4:55 PM 24.8 °F 14.6 °F 23.0 °F 93% 30.29 in 9.0 mi ENE 10.4 mph - N/A Snow Light Snow
5:15 PM 24.8 °F 16.9 °F 24.8 °F 100% 30.29 in 10.0 mi ENE 6.9 mph - N/A Snow Light Snow
5:35 PM 24.8 °F 15.3 °F 24.8 °F 100% 30.29 in 10.0 mi ENE 9.2 mph - N/A Snow Light Snow
5:55 PM 24.8 °F 14.6 °F 24.8 °F 100% 30.30 in 10.0 mi ENE 10.4 mph - N/A Snow Light Snow
6:15 PM 24.8 °F 14.6 °F 24.8 °F 100% 30.30 in 10.0 mi ENE 10.4 mph - N/A Snow Light Snow
6:35 PM 24.8 °F 15.3 °F 23.0 °F 93% 30.31 in 10.0 mi NE 9.2 mph - N/A Snow Light Snow
6:55 PM 24.8 °F 14.0 °F 23.0 °F 93% 30.33 in 10.0 mi ENE 11.5 mph - N/A Snow Light Snow
7:15 PM 24.8 °F 13.4 °F 23.0 °F 93% 30.33 in 10.0 mi NE 12.7 mph - N/A Snow Light Snow
7:35 PM 23.0 °F 10.6 °F 21.2 °F 93% 30.32 in 10.0 mi ENE 13.8 mph 18.4 mph N/A   Mostly Cloudy
7:55 PM 23.0 °F 11.7 °F 21.2 °F 93% 30.33 in 10.0 mi ENE 11.5 mph - N/A   Mostly Cloudy
8:15 PM 23.0 °F 11.7 °F 19.4 °F 86% 30.33 in 10.0 mi ENE 11.5 mph - N/A   Mostly Cloudy
8:35 PM 23.0 °F 11.1 °F 19.4 °F 86% 30.32 in 10.0 mi ENE 12.7 mph - N/A   Mostly Cloudy
8:55 PM 23.0 °F 13.1 °F 19.4 °F 86% 30.33 in 10.0 mi ENE 9.2 mph 17.3 mph N/A   Mostly Cloudy
9:15 PM 23.0 °F 11.1 °F 19.4 °F 86% 30.33 in 10.0 mi ENE 12.7 mph - N/A   Overcast
9:35 PM 23.0 °F 12.4 °F 19.4 °F 86% 30.34 in 10.0 mi ENE 10.4 mph - N/A   Overcast
9:55 PM 21.2 °F 8.9 °F 19.4 °F 93% 30.34 in 10.0 mi ENE 12.7 mph - N/A   Overcast
10:15 PM 21.2 °F 9.5 °F 19.4 °F 93% 30.33 in 10.0 mi ENE 11.5 mph - N/A   Overcast
10:35 PM 21.2 °F 10.9 °F 19.4 °F 93% 30.34 in 10.0 mi ENE 9.2 mph - N/A   Overcast
10:55 PM 21.2 °F 10.1 °F 19.4 °F 93% 30.33 in 10.0 mi East 10.4 mph - N/A   Overcast
11:10 PM 21.2 °F 10.1 °F 19.4 °F 93% 30.33 in 10.0 mi East 10.4 mph - N/A   Overcast
11:35 PM 21.2 °F 11.7 °F 19.4 °F 93% 30.34 in 10.0 mi East 8.1 mph - N/A   Overcast
11:55 PM 21.2 °F 11.7 °F 19.4 °F 93% 30.33 in 10.0 mi East 8.1 mph - N/A   Overcast